TimeAKDT,TemperatureF,Dew PointF,Humidity,Sea Level PressureIn,VisibilityMPH,Wind Direction,Wind SpeedMPH,Gust SpeedMPH,PrecipitationIn,Events,Conditions,WindDirDegrees,DateUTC
12:53 AM,45.0,44.1,97,30.30,10.0,Calm,Calm,-,N/A,,Overcast,0,2012-10-07 08:53:00
1:53 AM,46.0,45.0,96,30.31,10.0,Calm,Calm,-,N/A,,Overcast,0,2012-10-07 09:53:00
2:53 AM,46.0,44.1,93,30.30,10.0,North,3.5,-,0.00,Rain,Light Rain,350,2012-10-07 10:53:00
3:53 AM,45.0,43.0,93,30.30,10.0,Calm,Calm,-,0.02,Rain,Light Rain,0,2012-10-07 11:53:00
4:53 AM,46.0,45.0,96,30.29,10.0,Calm,Calm,-,0.02,Rain,Light Rain,0,2012-10-07 12:53:00
5:53 AM,45.0,44.1,97,30.28,6.0,Calm,Calm,-,0.02,Rain,Light Rain,0,2012-10-07 13:53:00
6:46 AM,44.6,44.6,100,30.26,10.0,Calm,Calm,-,0.01,Rain,Light Rain,0,2012-10-07 14:46:00
6:53 AM,45.0,44.1,97,30.27,10.0,Calm,Calm,-,0.01,Rain,Light Rain,0,2012-10-07 14:53:00
7:53 AM,45.0,44.1,97,30.26,10.0,Calm,Calm,-,0.01,Fog-Rain,Light Rain,0,2012-10-07 15:53:00
8:53 AM,45.0,44.1,97,30.27,10.0,Calm,Calm,-,0.00,Rain,Light Rain,0,2012-10-07 16:53:00
9:53 AM,45.0,44.1,97,30.27,10.0,NNW,3.5,-,0.01,Rain,Light Rain,340,2012-10-07 17:53:00
9:56 AM,44.6,44.6,100,30.26,10.0,NNW,4.6,-,0.00,Rain,Light Rain,340,2012-10-07 17:56:00
10:53 AM,46.0,44.1,93,30.27,10.0,North,3.5,-,0.01,Rain,Light Rain,360,2012-10-07 18:53:00
11:53 AM,46.9,46.0,97,30.28,5.0,Calm,Calm,-,0.02,Rain,Light Rain,0,2012-10-07 19:53:00
12:28 PM,46.4,46.4,100,30.27,8.0,Calm,Calm,-,0.02,Rain,Light Rain,0,2012-10-07 20:28:00
12:53 PM,46.9,46.0,97,30.28,8.0,Calm,Calm,-,0.03,Rain,Light Rain,0,2012-10-07 20:53:00
1:53 PM,46.9,46.0,97,30.28,10.0,NW,3.5,-,0.02,Rain,Light Rain,310,2012-10-07 21:53:00
2:53 PM,48.0,46.9,96,30.28,10.0,Calm,Calm,-,0.00,Rain,Light Rain,0,2012-10-07 22:53:00
3:53 PM,48.0,46.9,96,30.28,10.0,Calm,Calm,-,0.01,Rain,Light Rain,0,2012-10-07 23:53:00
4:53 PM,48.0,46.9,96,30.26,10.0,Calm,Calm,-,0.00,Rain,Light Rain,0,2012-10-08 00:53:00
5:53 PM,48.0,46.9,96,30.26,10.0,Calm,Calm,-,0.00,,Overcast,0,2012-10-08 01:53:00
6:53 PM,48.0,46.0,93,30.26,10.0,NE,3.5,-,N/A,,Overcast,50,2012-10-08 02:53:00
7:53 PM,48.0,46.9,96,30.26,10.0,Calm,Calm,-,N/A,,Overcast,0,2012-10-08 03:53:00
8:53 PM,48.0,46.9,96,30.26,10.0,WNW,3.5,-,N/A,,Overcast,300,2012-10-08 04:53:00
9:04 PM,46.4,46.4,100,30.25,10.0,West,4.6,-,N/A,,Overcast,280,2012-10-08 05:04:00
9:30 PM,46.4,46.4,100,30.25,3.0,NNW,4.6,-,N/A,,Overcast,340,2012-10-08 05:30:00
9:43 PM,46.4,46.4,100,30.25,2.0,NE,3.5,-,N/A,,Overcast,40,2012-10-08 05:43:00
9:50 PM,46.4,46.4,100,30.25,1.5,NE,4.6,-,N/A,,Overcast,40,2012-10-08 05:50:00
9:53 PM,46.9,46.0,97,30.25,1.5,NE,4.6,-,N/A,,Overcast,40,2012-10-08 05:53:00
10:13 PM,46.4,46.4,100,30.25,0.5,Calm,Calm,-,N/A,Fog,Fog,0,2012-10-08 06:13:00
10:53 PM,46.9,46.9,100,30.25,0.5,Calm,Calm,-,N/A,Fog,Fog,0,2012-10-08 06:53:00
11:01 PM,46.4,46.4,100,30.25,1.2,Calm,Calm,-,N/A,,Overcast,0,2012-10-08 07:01:00
11:08 PM,46.4,46.4,100,30.25,1.5,ENE,4.6,-,N/A,,Overcast,60,2012-10-08 07:08:00
11:27 PM,46.4,46.4,100,30.25,2.0,Calm,Calm,-,N/A,,Overcast,0,2012-10-08 07:27:00
11:43 PM,46.4,46.4,100,30.25,5.0,Calm,Calm,-,N/A,,Overcast,0,2012-10-08 07:43:00
11:51 PM,46.4,46.4,100,30.25,6.0,NNE,3.5,-,N/A,,Overcast,30,2012-10-08 07:51:00
11:53 PM,46.0,46.0,100,30.25,6.0,Calm,Calm,-,N/A,,Overcast,0,2012-10-08 07:53:00